Lapse_Rate
5.5 5.5 5.4 5.5 5.4 5.6 5.5 5.3 5.1 5.1 5.1 4.9 4.9 4.8 4.8 4.9 5.0 5.1 5.2 5.4 5.5 5.7 5.9 6.2 6.2 6.3 6.4 6.6 6.6 6.6 6.6 6.5 6.3 6.2 6.2 6.0 6.0 5.9 6.0 5.9 5.9 5.7 5.7 5.7 5.7
5.6 5.6 5.6 5.7 5.6 5.7 5.5 5.2 5.2 5.1 5.3 5.0 5.0 5.0 5.0 5.0 5.2 5.2 5.4 5.4 5.6 5.8 6.0 6.2 6.3 6.4 6.5 6.6 6.6 6.6 6.5 6.5 6.4 6.3 6.2 6.1 6.1 6.1 6.0 5.9 5.8 5.7 5.7 5.7 5.6
5.7 5.8 5.9 5.9 5.9 5.8 5.5 5.3 5.1 5.2 5.2 5.1 5.1 5.1 5.2 5.2 5.3 5.4 5.4 5.6 5.7 5.8 5.9 6.0 6.2 6.3 6.4 6.4 6.5 6.6 6.6 6.5 6.4 6.3 6.2 6.0 5.9 5.9 5.9 5.8 5.8 5.7 5.7 5.8 5.7
5.9 6.0 6.0 6.0 6.0 5.9 5.6 5.2 5.2 5.4 5.2 5.2 5.1 5.2 5.2 5.3 5.5 5.4 5.4 5.5 5.6 5.7 5.8 6.0 6.1 6.2 6.3 6.4 6.5 6.5 6.5 6.5 6.3 6.2 6.1 6.1 6.0 6.0 5.9 5.9 5.8 5.8 5.8 5.8 5.6
6.0 6.1 6.2 6.2 6.1 6.0 5.6 5.5 5.5 5.5 5.3 5.1 5.1 5.1 5.2 5.4 5.7 5.7 5.6 5.7 5.8 6.0 6.0 6.1 6.3 6.5 6.5 6.5 6.5 6.5 6.4 6.3 6.1 6.0 5.9 5.9 6.0 5.9 6.0 5.9 5.8 5.8 5.7 5.6 5.6
6.2 6.2 6.2 6.3 6.2 5.9 5.7 5.5 5.5 5.5 5.4 5.3 5.2 5.3 5.4 5.5 5.8 5.8 5.8 5.9 6.1 6.2 6.3 6.4 6.5 6.6 6.7 6.6 6.5 6.4 6.2 6.1 6.1 6.1 6.0 5.9 6.0 5.9 6.0 5.8 5.7 5.6 5.6 5.5 5.6
6.4 6.3 6.3 6.3 6.2 6.0 5.7 5.6 5.5 5.5 5.3 5.4 5.4 5.4 5.6 5.7 5.8 5.9 5.9 6.0 6.1 6.2 6.3 6.5 6.6 6.6 6.6 6.5 6.4 6.3 6.1 6.1 6.1 6.1 6.0 5.8 6.0 6.2 6.0 5.9 5.8 5.7 5.5 5.5 5.7
6.5 6.4 6.3 6.3 6.2 5.9 5.8 5.6 5.5 5.4 5.3 5.3 5.3 5.5 5.6 5.7 5.7 5.7 5.8 5.9 6.0 6.1 6.3 6.4 6.5 6.5 6.5 6.3 6.2 6.1 5.9 5.8 6.1 6.0 6.0 5.8 6.0 6.1 6.1 6.0 5.7 5.6 5.6 5.7 5.7
6.6 6.5 6.4 6.2 6.0 5.9 5.8 5.6 5.4 5.3 5.2 5.2 5.4 5.6 5.6 5.6 5.6 5.7 5.8 6.0 6.0 6.1 6.3 6.4 6.5 6.5 6.3 6.1 5.9 6.0 6.0 6.0 6.0 6.0 5.9 5.9 6.1 6.2 6.0 5.9 5.7 5.6 5.8 5.7 5.8
6.6 6.6 6.3 6.1 6.1 5.8 5.7 5.6 5.4 5.2 5.2 5.3 5.6 5.6 5.6 5.6 5.6 5.6 5.9 6.0 6.0 6.1 6.3 6.5 6.5 6.4 6.2 6.1 6.5 5.9 5.8 6.1 6.0 6.1 6.0 6.2 6.6 6.1 6.1 6.1 5.9 5.9 6.0 6.0 5.8
6.6 6.4 6.3 6.2 6.0 5.9 5.9 5.7 5.4 5.2 5.3 5.5 5.7 5.6 5.7 5.7 5.7 5.8 5.9 6.0 6.1 6.2 6.4 6.5 6.3 6.1 6.2 6.2 6.2 6.2 6.2 6.0 6.0 6.1 6.1 6.2 6.6 6.1 6.3 6.6 6.2 6.1 6.1 5.9 5.7
6.5 6.3 6.2 6.1 6.1 6.0 6.1 5.8 5.5 5.7 5.7 5.6 5.7 5.7 5.8 5.7 5.8 6.0 6.1 6.1 6.2 6.4 6.5 6.4 6.1 6.1 6.1 6.0 6.1 6.1 6.1 5.8 6.2 5.9 5.9 6.2 7.1 6.7 6.9 6.8 6.5 6.4 6.2 6.0 5.9
6.6 6.4 6.2 6.1 6.3 6.2 6.0 5.8 5.9 5.8 5.7 5.7 5.8 5.8 5.8 5.9 5.9 6.0 6.1 6.1 6.3 6.4 6.4 6.3 6.2 6.1 6.0 5.9 5.9 6.1 6.1 6.0 5.9 5.8 6.0 6.0 6.7 6.7 6.5 6.6 6.7 6.5 6.2 6.1 5.8
6.5 6.4 6.3 6.2 6.3 6.1 6.0 6.0 6.0 5.9 5.9 5.9 5.8 5.8 5.9 5.9 5.9 6.0 6.1 6.2 6.3 6.4 6.3 6.2 6.1 6.0 6.0 5.9 5.9 5.9 6.0 5.9 5.8 5.5 5.6 5.6 6.7 6.6 6.5 6.6 6.4 6.2 5.9 5.7 5.7
6.5 6.3 6.3 6.2 6.1 6.0 6.0 6.1 6.1 6.1 6.6 6.0 5.9 6.0 5.9 5.9 6.0 6.0 6.1 6.1 6.2 6.2 6.2 6.1 6.0 6.1 5.9 5.8 5.8 5.8 6.0 5.8 5.7 5.4 5.5 5.1 5.4 6.8 6.6 6.5 6.4 6.1 5.9 5.7 5.5
6.4 6.3 6.3 6.2 6.0 6.0 6.0 6.1 6.1 6.1 6.5 6.1 6.0 6.0 6.0 6.0 5.9 6.0 6.1 6.0 6.0 6.0 6.0 6.0 6.0 5.9 5.9 6.0 5.8 5.9 6.2 6.0 5.8 5.6 6.1 5.6 5.4 6.9 6.5 6.4 6.1 6.0 5.9 5.8 5.5
6.3 6.2 6.2 6.1 6.0 5.9 6.0 6.1 6.1 6.2 6.4 6.3 6.1 6.0 5.9 5.9 5.9 6.0 5.9 6.0 5.9 5.8 5.9 5.9 5.9 5.9 6.0 6.0 6.0 5.9 6.0 6.7 6.9 6.9 7.1 5.6 5.2 7.1 6.7 6.4 6.2 6.1 5.7 5.6 5.4
6.2 6.1 6.0 6.0 6.0 6.0 6.0 6.0 6.0 6.3 6.3 6.3 6.1 6.0 5.9 5.9 5.9 5.9 5.9 5.9 6.0 5.9 5.9 5.8 6.1 6.0 6.1 6.1 6.0 6.1 5.8 6.2 6.6 7.2 6.8 5.9 6.1 7.2 6.6 6.4 6.2 6.0 5.7 5.5 5.4
6.0 5.8 6.0 5.9 5.9 5.9 5.9 5.9 6.3 6.3 6.3 6.2 6.1 6.0 5.9 5.9 5.9 5.8 5.9 5.9 5.9 5.9 5.9 6.0 6.0 6.2 6.1 6.1 6.1 6.1 5.8 5.8 5.4 5.2 5.3 6.3 6.5 7.2 6.5 6.2 6.0 5.9 5.7 5.5 5.4
6.0 5.7 5.8 5.8 5.8 5.9 5.8 6.1 6.3 6.3 6.2 6.2 6.0 6.0 6.0 6.0 5.9 5.9 5.9 6.0 5.9 5.9 6.0 6.1 6.0 6.1 6.2 6.1 6.1 6.0 6.1 6.0 5.9 6.7 6.8 7.3 5.9 6.9 6.6 6.2 6.2 6.1 5.9 5.7 5.4
6.0 5.7 5.8 5.8 5.7 5.7 5.8 6.2 6.4 6.4 6.2 6.1 6.1 6.0 6.1 6.1 6.0 5.9 6.0 6.1 6.0 6.0 6.0 6.1 6.1 6.1 6.1 6.2 6.1 6.0 6.0 6.0 5.7 5.5 6.7 6.8 7.7 7.3 6.8 6.5 6.3 6.0 5.9 5.7 5.5
6.0 5.9 5.9 5.7 5.7 5.7 6.1 6.3 6.4 6.4 6.4 6.3 6.1 6.1 6.1 6.0 6.1 6.0 6.1 6.1 6.1 6.0 6.1 6.1 6.1 6.2 6.4 6.4 6.3 6.2 6.1 6.0 5.8 5.7 5.1 5.0 6.2 7.1 7.1 6.6 6.2 6.1 6.0 5.8 5.6
5.8 5.9 6.0 5.7 5.6 5.9 6.2 6.3 6.2 6.4 6.4 6.4 6.3 6.3 6.3 6.1 6.1 6.1 6.2 6.3 6.1 6.1 6.2 6.2 6.2 6.3 6.5 6.4 6.6 6.4 6.5 6.3 6.0 5.5 5.6 6.0 7.5 7.5 7.0 6.6 6.3 6.3 6.0 5.9 5.7
5.8 5.6 5.9 5.8 5.9 5.9 6.1 6.1 6.2 6.5 6.5 6.5 6.5 6.4 6.4 6.4 6.3 6.3 6.3 6.3 6.3 6.2 6.2 6.3 6.4 6.6 7.1 7.0 6.8 6.6 6.6 6.3 5.9 5.3 6.0 6.3 7.2 7.6 6.9 6.6 6.4 6.2 6.2 6.0 5.8
5.8 5.9 6.0 6.0 6.1 6.1 6.0 6.3 6.4 6.5 6.6 6.6 6.7 6.8 6.5 6.4 6.5 6.6 6.4 6.4 6.4 6.3 6.3 6.2 6.4 6.7 6.9 6.7 6.8 7.0 6.9 6.7 6.5 6.7 5.7 7.7 7.1 7.4 6.9 6.7 6.3 6.2 6.2 6.1 5.9
5.9 5.8 6.0 6.2 6.2 6.2 6.2 6.5 6.7 6.6 6.4 6.6 6.7 6.7 6.6 6.7 6.6 6.7 6.5 6.5 6.4 6.5 6.4 6.4 6.1 6.6 7.0 7.0 7.0 7.2 7.4 7.1 7.1 6.8 7.0 7.4 7.4 7.1 7.0 6.8 6.6 6.2 6.2 6.1 5.9
5.8 5.8 5.8 5.9 6.1 6.1 6.5 6.6 6.6 6.6 6.7 6.8 6.8 6.6 6.7 6.7 6.6 6.6 6.5 6.4 6.4 6.4 6.3 6.1 6.2 6.2 6.3 7.0 6.7 7.1 8.5 7.9 7.6 7.4 7.4 7.4 7.4 7.1 7.2 7.1 6.9 6.3 6.3 6.1 5.9
Wind_Speed
4 4 3 4 1 2 1 3 5 5 9 13 16 15 16 14 9 4 15 11 11 21 7 4 6 5 9 6 7 1 3 5 6 9 8 10 6 3 1 7 3 2 2 3 17
3 3 3 3 2 3 2 4 5 8 10 12 16 15 12 9 2 17 7 22 16 7 2 4 6 9 6 5 5 4 3 3 2 4 9 13 8 11 7 8 5 6 6 15 17
3 4 4 3 4 3 3 4 7 9 12 14 16 16 10 5 1 8 25 24 14 4 5 4 5 5 6 6 8 6 4 6 2 1 11 12 7 6 6 8 9 12 17 17 15
4 5 3 3 4 2 3 6 10 12 13 14 16 14 7 4 2 9 28 19 9 3 1 3 3 4 5 5 4 7 6 3 6 7 7 9 9 5 11 1 3 12 18 17 14
5 4 4 5 2 2 5 9 12 13 14 14 15 11 4 8 6 14 21 10 7 3 6 3 7 4 6 6 5 10 6 6 7 5 6 9 5 3 12 4 8 15 15 15 13
6 3 4 4 4 5 8 10 13 14 15 14 13 7 1 8 5 13 10 5 11 12 13 7 7 13 11 6 6 6 10 9 5 6 5 4 4 3 10 9 14 16 15 13 13
5 4 4 6 4 6 10 11 13 15 16 12 10 3 15 7 2 6 14 9 10 7 8 6 6 4 6 8 7 9 6 4 5 4 3 3 7 11 8 14 16 16 14 13 13
5 4 4 6 6 8 11 14 14 12 12 7 5 1 5 1 0 6 1 8 10 11 16 13 14 13 5 13 5 3 3 3 6 6 3 4 6 7 13 16 16 16 14 14 14
5 4 5 5 6 11 14 13 9 11 9 5 2 1 5 1 1 5 5 2 4 6 7 5 5 6 4 4 4 3 3 4 3 8 3 8 8 6 12 14 14 16 15 14 13
4 5 4 4 9 12 12 5 7 5 4 1 2 4 1 2 3 5 2 2 2 3 3 3 3 4 3 3 3 1 4 3 6 5 8 9 19 8 11 15 16 15 15 15 15
4 3 4 6 9 11 5 2 3 3 8 4 3 2 2 3 2 4 3 2 0 4 3 4 1 5 5 4 2 2 4 6 2 2 5 10 18 14 11 16 16 15 16 16 16
4 5 5 8 8 6 4 3 3 3 5 3 1 1 1 2 1 10 8 2 2 3 2 2 5 2 2 2 2 3 6 5 1 2 4 11 22 14 11 15 17 17 17 17 15
5 6 9 8 4 4 5 3 5 4 0 1 2 2 2 2 3 7 7 1 4 4 5 3 3 2 1 1 4 4 5 4 5 5 4 11 6 2 2 7 10 15 15 15 16
8 9 12 4 2 1 3 2 3 3 3 2 1 2 1 1 2 3 5 2 2 3 2 4 2 2 1 1 2 5 2 3 8 6 4 4 6 1 1 5 8 12 14 13 14
10 8 8 6 5 1 2 3 2 3 4 3 1 3 2 1 3 3 2 1 2 4 3 3 1 1 1 2 1 3 3 4 3 4 4 2 4 2 1 1 1 6 10 13 13
10 12 5 2 2 2 2 1 3 3 3 2 1 1 2 3 2 5 1 5 1 2 3 3 1 1 2 1 2 0 4 3 3 2 3 3 4 4 1 1 1 2 3 10 11
9 8 4 1 2 4 2 2 3 4 1 1 0 1 1 2 1 5 3 3 1 3 2 3 2 2 2 2 3 4 6 3 2 2 3 2 5 8 4 5 4 5 3 7 10
6 5 6 3 4 2 2 2 3 1 3 1 1 1 2 0 1 1 1 2 2 1 1 2 3 1 2 3 3 4 4 3 4 5 8 2 5 2 1 2 4 5 6 7 11
3 1 1 5 6 2 2 3 2 2 1 3 2 3 3 2 2 2 1 2 0 2 2 3 2 2 3 1 3 3 0 2 2 0 4 2 5 11 4 8 8 8 7 10 13
1 1 1 9 6 1 2 3 2 2 2 2 5 3 3 4 4 3 4 3 3 2 3 2 2 1 3 1 4 3 4 1 1 4 5 4 6 8 3 5 6 9 11 11 13
1 2 2 6 2 1 4 4 4 3 3 4 3 3 4 3 4 3 2 3 3 4 1 3 2 4 2 6 5 3 3 2 1 2 3 5 6 6 8 4 7 7 9 12 15
2 3 3 3 3 1 3 3 0 3 2 3 2 4 5 4 5 4 4 2 5 5 3 3 2 4 1 3 2 2 2 5 3 4 3 3 9 4 7 5 7 9 7 10 14
2 1 2 2 4 4 1 2 2 4 4 5 5 4 2 4 4 4 3 2 4 4 3 4 3 2 3 2 1 5 5 4 2 1 11 4 6 3 5 9 10 11 7 8 13
2 2 1 1 1 2 4 4 3 2 3 3 2 3 3 4 3 2 4 3 3 3 2 3 3 6 5 2 3 5 7 11 9 5 4 13 21 22 13 10 11 9 8 9 13
0 2 1 3 4 4 3 3 4 4 4 4 3 9 7 6 3 5 3 3 2 4 2 2 5 4 10 9 5 10 10 14 15 17 10 15 9 22 20 18 13 6 7 10 14
2 3 2 2 2 5 5 6 9 4 8 5 7 6 10 6 8 7 9 6 4 5 6 3 2 1 5 0 4 8 14 17 19 18 20 23 26 23 17 4 7 8 9 13 15
1 2 3 4 4 4 5 6 6 6 7 1 8 4 9 9 1 2 3 3 5 7 10 5 3 2 4 0 7 10 10 18 9 9 10 10 11 2 7 10 11 9 11 14 16
Wind_Direction
89 88 126 110 172 78 12 335 325 331 334 341 329 331 327 334 320 72 43 333 309 311 306 293 34 68 59 66 44 309 110 141 152 170 142 153 157 124 99 143 147 165 247 119 145
106 142 129 116 116 56 340 335 317 331 352 336 325 316 320 325 273 49 20 346 343 328 304 345 19 38 60 40 30 24 98 105 67 118 160 168 181 158 175 163 180 165 138 141 155
128 140 115 159 92 71 331 312 326 348 347 336 318 310 315 287 104 6 353 343 340 340 60 81 76 54 66 36 15 25 77 128 86 74 146 156 173 170 178 201 199 189 162 162 169
130 118 145 114 83 55 318 333 332 351 342 334 311 314 306 248 77 345 338 333 340 327 105 71 48 64 66 59 27 102 69 103 129 132 143 163 143 195 208 159 223 172 165 167 178
113 138 137 95 75 34 333 339 339 338 333 327 320 318 247 69 30 338 334 352 2 55 44 82 66 106 91 92 89 83 110 89 115 129 122 141 185 241 211 215 172 156 166 176 179
123 137 112 102 65 355 333 342 332 331 325 319 326 301 75 83 339 4 359 25 47 71 62 65 97 102 86 59 38 104 111 120 141 133 145 201 193 221 203 176 168 168 177 182 187
122 123 98 62 14 350 334 334 329 327 313 321 340 16 73 80 38 349 33 46 50 63 84 60 112 73 126 103 113 127 110 142 169 164 159 227 221 232 169 173 173 182 184 190 195
104 99 70 48 351 343 339 335 329 329 307 313 325 291 79 32 24 26 35 69 65 71 94 96 88 84 62 120 126 166 204 228 150 181 151 223 276 176 165 175 186 192 195 197 200
87 69 39 12 350 349 338 328 330 315 297 319 270 358 109 133 332 349 4 44 82 77 80 103 71 87 151 165 154 194 289 248 202 203 164 225 290 141 175 192 201 204 204 205 202
67 38 2 355 355 344 342 347 325 326 279 213 106 144 108 56 333 330 345 348 64 140 142 57 86 117 117 238 346 319 267 237 275 155 221 238 258 224 194 204 216 212 212 213 210
23 1 342 343 357 3 18 328 258 176 41 35 6 15 32 357 283 4 351 265 260 66 46 33 95 64 70 25 12 287 276 283 306 124 257 258 272 273 213 216 221 220 217 218 215
352 339 337 336 4 44 59 48 35 20 87 34 350 14 18 331 261 25 344 262 28 70 318 191 75 81 97 35 286 267 290 300 223 123 251 301 291 295 247 221 225 223 223 221 214
359 343 341 334 49 51 65 62 325 298 61 61 356 355 357 317 56 354 349 43 55 77 40 40 87 144 222 356 302 264 277 324 305 320 246 302 266 198 162 234 235 233 238 227 218
16 352 356 356 121 73 63 338 333 264 236 140 205 57 308 48 91 341 10 348 85 99 80 71 97 166 170 290 303 297 11 299 302 307 323 341 312 176 171 258 223 229 224 226 219
20 7 9 37 112 102 78 324 166 239 265 97 78 3 40 12 357 50 15 288 80 115 238 86 160 151 254 22 246 343 318 307 281 264 286 110 272 110 242 189 188 231 225 218 213
22 20 11 13 79 52 310 190 224 235 251 146 323 302 189 40 42 318 51 58 59 109 64 86 76 355 21 151 211 313 260 235 207 247 242 68 343 276 286 36 238 218 260 215 202
17 27 51 25 58 337 283 227 258 248 67 151 278 16 62 35 58 15 21 54 304 232 179 154 133 114 299 263 181 251 280 316 258 286 343 121 275 278 256 261 286 295 262 203 186
5 45 42 47 342 320 240 253 251 54 230 66 98 115 251 311 78 19 165 187 104 259 158 238 182 214 22 11 343 34 349 358 310 327 313 112 240 348 190 235 259 266 266 196 185
7 20 70 12 347 281 246 247 279 210 138 183 163 224 202 198 270 229 327 203 121 240 270 193 192 115 41 18 312 118 96 19 287 289 271 263 264 264 249 257 237 235 220 201 193
89 324 48 339 338 277 220 267 246 208 167 188 230 223 237 193 215 215 195 140 181 238 302 149 224 200 115 170 61 330 113 222 149 303 296 272 281 257 286 294 228 231 227 206 195
73 228 65 341 284 197 231 234 239 213 200 200 232 214 235 225 228 211 194 157 196 158 244 191 253 131 180 201 176 150 175 98 321 264 286 302 286 212 237 253 250 252 233 209 197
129 223 21 306 188 295 212 203 346 198 184 222 239 233 216 198 218 236 223 226 149 166 192 166 272 235 147 89 7 313 218 203 223 175 233 294 271 184 242 254 256 263 249 216 199
180 253 74 274 222 212 217 242 240 181 214 197 220 223 167 215 239 224 211 95 151 176 184 172 212 243 184 167 178 227 190 192 108 101 230 254 265 154 233 252 252 257 245 208 194
158 223 133 88 357 204 186 227 228 214 242 209 170 152 165 205 195 259 218 183 171 179 92 186 260 255 268 353 104 193 193 199 205 215 221 235 280 291 297 286 287 265 242 204 194
214 198 21 193 211 194 193 174 188 223 215 208 221 222 188 198 198 221 179 168 192 169 137 239 254 230 267 268 246 255 224 196 209 226 232 271 267 282 296 305 304 292 215 199 196
214 182 186 162 166 180 188 216 207 185 176 219 229 208 196 210 207 195 175 203 196 165 185 181 258 256 273 213 233 262 239 228 226 243 255 265 277 280 283 305 254 251 211 210 206
15 322 277 146 173 192 208 210 212 175 198 190 219 172 213 230 180 64 106 86 157 170 185 180 220 231 266 1 299 270 239 198 194 218 217 219 246 308 276 270 276 261 220 219 209